Total_Precipitation_Accumulation
0.05 0.09 0.24 0.44 1.02 1.36 1.18 0.73 0.53 0.50 0.56 0.56 0.49 0.46 0.50 0.51 0.70 1.22 0.84 0.46 0.21 0.11 0.12 0.21 0.35 0.30 0.26 0.25 0.26 0.28 0.26 0.26 0.28 0.29 0.26 0.27 0.29 0.29 0.30 0.36 0.44 0.48 0.47 0.48 0.51 0.47 0.45 0.48 0.52
0.08 0.15 0.33 0.85 1.31 1.26 1.12 0.63 0.36 0.44 0.53 0.67 0.66 0.52 0.42 0.42 0.42 0.40 0.42 0.52 0.22 0.13 0.12 0.13 0.25 0.26 0.21 0.21 0.24 0.26 0.25 0.24 0.24 0.26 0.28 0.30 0.32 0.35 0.38 0.44 0.46 0.49 0.48 0.47 0.45 0.43 0.43 0.45 0.56
0.11 0.22 0.41 0.86 0.93 0.83 0.84 0.50 0.37 0.33 0.50 0.73 0.71 0.48 0.46 0.49 0.41 0.34 0.36 0.40 0.25 0.20 0.13 0.14 0.25 0.24 0.22 0.22 0.24 0.24 0.27 0.25 0.23 0.25 0.28 0.33 0.38 0.43 0.45 0.46 0.47 0.51 0.54 0.53 0.50 0.44 0.44 0.44 0.52
0.13 0.28 0.51 0.58 0.40 0.31 0.40 0.44 0.46 0.45 0.63 0.76 0.62 0.52 0.51 0.50 0.44 0.33 0.31 0.39 0.26 0.25 0.18 0.18 0.26 0.25 0.23 0.23 0.22 0.25 0.27 0.27 0.26 0.27 0.30 0.38 0.44 0.49 0.49 0.48 0.52 0.55 0.56 0.53 0.49 0.52 0.49 0.51 0.59
0.11 0.28 0.54 0.43 0.26 0.19 0.22 0.27 0.35 0.52 0.70 0.82 0.69 0.66 0.69 0.53 0.44 0.36 0.30 0.41 0.38 0.31 0.28 0.28 0.34 0.33 0.29 0.28 0.29 0.30 0.31 0.30 0.28 0.27 0.29 0.39 0.47 0.49 0.47 0.47 0.50 0.47 0.49 0.52 0.56 0.61 0.60 0.65 0.70
0.11 0.23 0.41 0.29 0.17 0.14 0.19 0.24 0.38 0.57 0.61 0.69 0.79 0.85 0.83 0.61 0.53 0.45 0.42 0.52 0.53 0.43 0.33 0.41 0.44 0.43 0.39 0.37 0.38 0.40 0.39 0.34 0.31 0.31 0.34 0.41 0.48 0.47 0.47 0.49 0.46 0.41 0.40 0.46 0.56 0.65 0.68 0.69 0.73
0.11 0.18 0.22 0.18 0.12 0.13 0.20 0.31 0.35 0.48 0.56 0.77 0.81 0.85 0.90 0.81 0.68 0.56 0.68 0.89 0.85 0.67 0.49 0.51 0.51 0.47 0.45 0.47 0.48 0.48 0.46 0.43 0.41 0.39 0.43 0.45 0.50 0.46 0.48 0.58 0.52 0.45 0.46 0.50 0.62 0.68 0.79 0.73 0.72
0.07 0.13 0.17 0.15 0.08 0.12 0.18 0.25 0.36 0.49 0.61 0.69 0.79 0.91 0.92 0.81 0.71 0.77 0.97 1.32 1.43 1.28 0.96 0.66 0.61 0.65 0.58 0.51 0.55 0.57 0.49 0.46 0.48 0.48 0.50 0.55 0.59 0.58 0.59 0.62 0.64 0.58 0.62 0.65 0.76 0.76 0.76 0.78 0.82
0.04 0.10 0.14 0.11 0.10 0.13 0.19 0.25 0.32 0.38 0.47 0.69 0.88 1.02 0.92 0.72 0.74 0.95 1.17 1.46 1.63 1.45 1.26 1.06 0.95 0.83 0.77 0.71 0.60 0.72 0.63 0.60 0.65 0.77 0.76 0.91 1.07 0.96 0.94 0.81 0.85 0.85 0.89 1.01 1.12 1.06 1.03 1.03 1.03
0.02 0.05 0.07 0.05 0.05 0.05 0.12 0.22 0.28 0.42 0.73 1.16 1.39 1.26 1.00 0.85 0.95 1.20 1.38 1.38 1.45 1.46 1.39 1.42 1.25 1.14 1.13 1.03 1.07 1.24 1.13 1.09 1.17 1.33 1.34 1.61 1.74 1.51 1.08 1.10 1.31 1.27 1.38 1.52 1.68 1.84 1.64 1.44 1.25
0.00 0.03 0.03 0.02 0.02 0.03 0.06 0.15 0.26 0.45 0.95 1.44 1.64 1.35 1.13 1.08 1.18 1.32 1.63 1.72 1.79 1.76 1.60 1.66 1.54 1.45 1.50 1.59 1.54 1.61 1.71 1.76 1.85 1.88 1.93 2.13 1.95 1.58 1.36 1.51 1.79 1.79 1.82 1.88 2.12 2.31 1.92 1.88 1.91
0.00 0.00 0.00 0.01 0.01 0.02 0.05 0.14 0.34 0.59 0.99 1.28 1.21 1.07 1.06 1.25 1.43 1.60 1.86 2.17 2.27 2.29 2.16 1.92 1.86 2.03 2.03 1.93 1.86 1.71 1.55 1.55 1.70 1.81 1.80 2.16 2.32 2.19 2.12 2.16 2.00 2.13 2.28 2.55 2.47 2.49 2.35 2.32 2.18
0.00 0.00 0.00 0.01 0.01 0.04 0.08 0.17 0.37 0.68 0.89 0.95 0.84 0.88 1.14 1.41 1.67 2.11 2.51 2.59 2.55 2.75 2.87 2.66 2.59 2.54 2.34 2.31 1.96 1.70 1.61 1.50 1.41 1.61 1.78 2.01 2.31 2.36 2.39 2.14 2.04 1.94 2.09 2.32 2.32 2.15 2.27 2.41 2.40
0.00 0.00 0.01 0.02 0.02 0.05 0.14 0.23 0.37 0.60 0.69 0.70 0.77 1.00 1.21 1.61 1.90 2.41 2.90 2.96 3.05 3.29 3.46 3.35 3.31 3.10 2.78 2.47 2.22 2.11 1.86 1.76 1.49 1.53 1.53 1.88 2.22 2.22 2.07 2.08 2.11 2.01 2.14 2.15 2.13 2.19 2.39 2.52 2.60
0.00 0.02 0.07 0.07 0.06 0.07 0.15 0.36 0.46 0.65 0.74 0.69 0.86 1.04 1.41 1.86 2.11 2.43 2.69 3.07 3.48 3.85 3.90 3.83 3.83 3.69 3.56 3.22 2.80 2.40 2.19 1.95 1.85 1.72 1.58 1.81 2.07 2.16 2.14 2.07 1.93 1.94 2.02 2.11 2.15 2.21 2.33 2.26 2.31
0.02 0.06 0.17 0.17 0.11 0.11 0.15 0.51 0.76 0.74 0.72 0.76 0.92 1.26 1.53 1.82 2.22 2.44 2.76 3.11 3.51 4.00 4.38 4.42 3.91 3.85 3.82 3.66 3.34 2.93 2.79 2.62 2.38 1.99 1.78 1.73 1.89 1.92 1.97 1.82 1.78 1.87 1.72 1.76 1.87 1.81 1.90 1.99 2.13
0.05 0.10 0.18 0.26 0.16 0.13 0.25 0.74 1.08 0.82 0.66 0.80 1.07 1.38 1.74 1.94 2.35 2.48 2.68 2.95 3.40 4.26 5.13 5.11 4.53 4.12 3.81 3.71 3.69 3.55 3.32 2.89 2.49 2.18 1.99 1.80 1.68 1.50 1.52 1.47 1.54 1.52 1.46 1.47 1.35 1.60 1.70 1.85 1.95
0.05 0.11 0.23 0.35 0.22 0.20 0.31 0.69 0.75 0.67 0.86 0.88 0.92 1.14 1.47 1.58 1.87 2.14 2.43 2.96 3.75 4.90 5.70 5.59 4.94 4.43 4.06 3.86 3.67 3.58 3.24 2.90 2.49 2.26 2.06 1.77 1.67 1.42 1.32 1.25 1.31 1.24 1.29 1.38 1.42 1.56 1.56 1.52 1.60
0.05 0.09 0.22 0.27 0.20 0.29 0.37 0.59 0.69 0.80 1.00 1.00 0.87 0.92 1.22 1.42 1.68 2.06 2.63 3.50 4.57 5.48 5.77 5.25 4.72 4.36 3.92 3.48 2.92 2.53 2.44 2.32 2.07 1.80 1.51 1.36 1.27 1.31 1.32 1.16 1.22 1.12 1.14 1.17 1.17 1.24 1.27 1.23 1.31
0.06 0.08 0.20 0.26 0.18 0.21 0.36 0.69 0.98 0.97 0.90 0.87 0.93 0.94 1.05 1.42 1.86 2.52 3.50 4.13 4.39 4.53 4.29 3.95 3.68 3.45 2.99 2.58 2.31 2.06 2.00 1.83 1.66 1.56 1.48 1.19 1.07 1.08 1.02 1.10 1.08 1.03 1.13 1.16 1.14 1.14 1.13 1.09 1.14
0.10 0.11 0.18 0.25 0.16 0.16 0.37 0.85 1.13 1.13 0.90 0.78 0.84 0.83 1.02 1.45 2.03 2.82 3.37 3.50 3.23 2.93 2.83 2.78 2.83 2.58 2.43 2.35 2.23 2.12 2.06 1.83 1.59 1.46 1.37 1.12 0.97 0.96 0.95 0.92 0.97 1.04 1.00 1.11 1.13 1.04 1.05 1.09 1.06
0.09 0.07 0.06 0.09 0.15 0.33 0.52 1.08 1.26 1.03 0.98 0.83 0.84 0.86 0.92 1.20 1.54 1.96 2.20 2.09 2.21 2.35 2.36 2.46 2.55 2.30 2.27 2.20 1.88 1.76 1.64 1.50 1.34 1.27 1.26 1.30 1.11 0.97 0.90 0.84 0.84 0.90 0.89 1.06 0.92 0.96 1.03 1.08 0.98
0.04 0.03 0.04 0.11 0.22 0.42 0.61 0.87 1.03 0.84 1.02 0.83 0.70 0.69 0.68 0.86 0.94 1.04 1.17 1.31 1.52 1.63 1.79 2.09 2.33 2.28 2.11 1.93 1.81 1.80 1.66 1.59 1.54 1.55 1.49 1.44 1.33 1.12 0.97 0.94 0.87 0.87 0.84 0.90 0.89 1.09 1.07 1.00 0.94
0.03 0.05 0.12 0.23 0.40 0.89 0.85 0.83 1.06 0.98 1.05 0.80 0.60 0.51 0.57 0.71 0.80 0.83 0.88 1.01 1.18 1.31 1.47 1.71 2.02 2.15 2.07 1.91 1.79 1.74 1.73 1.66 1.56 1.54 1.47 1.32 1.24 1.18 1.06 1.02 1.00 0.92 0.88 0.86 0.85 0.99 1.04 1.06 1.06
0.05 0.07 0.24 0.58 0.98 1.15 0.72 0.79 1.05 0.81 0.73 0.57 0.36 0.31 0.45 0.66 0.80 0.87 0.82 0.80 0.86 1.01 1.16 1.24 1.41 1.66 1.78 1.75 1.70 1.66 1.73 1.60 1.41 1.33 1.24 1.18 1.04 0.96 0.95 0.94 0.95 0.84 0.86 0.94 1.02 1.01 1.00 1.04 1.07
0.05 0.04 0.11 0.22 0.33 0.52 0.69 1.07 1.19 0.85 0.57 0.33 0.23 0.27 0.42 0.59 0.63 0.69 0.69 0.65 0.63 0.71 0.89 1.00 1.18 1.35 1.54 1.54 1.51 1.48 1.52 1.45 1.35 1.34 1.12 1.02 0.98 0.93 0.95 0.96 0.89 0.84 0.88 0.90 1.06 0.94 0.91 0.95 0.96
0.05 0.03 0.04 0.07 0.12 0.32 0.69 0.99 0.94 0.74 0.55 0.37 0.28 0.30 0.32 0.39 0.43 0.53 0.60 0.67 0.65 0.64 0.74 0.86 1.05 1.23 1.40 1.51 1.53 1.45 1.44 1.44 1.41 1.34 1.17 1.02 1.08 1.03 1.09 1.04 0.96 0.95 1.00 1.03 1.10 0.98 0.95 1.02 0.95
0.05 0.04 0.04 0.05 0.11 0.24 0.52 0.90 1.09 0.91 0.68 0.49 0.39 0.37 0.41 0.40 0.35 0.47 0.59 0.63 0.55 0.48 0.54 0.69 0.85 1.07 1.22 1.38 1.41 1.31 1.46 1.44 1.42 1.35 1.22 1.09 1.04 1.03 1.11 1.09 1.00 0.98 1.01 1.05 1.11 1.01 1.03 1.05 1.03
0.07 0.06 0.06 0.05 0.08 0.14 0.36 0.58 0.56 0.51 0.44 0.40 0.46 0.43 0.33 0.35 0.32 0.40 0.49 0.52 0.48 0.40 0.42 0.50 0.67 0.84 0.95 1.06 1.17 1.17 1.24 1.23 1.23 1.25 1.23 1.17 1.12 1.09 1.08 1.07 1.05 1.01 1.04 1.09 1.14 1.10 1.10 1.07 1.11
0.09 0.09 0.09 0.08 0.08 0.09 0.18 0.36 0.31 0.34 0.35 0.35 0.47 0.51 0.42 0.38 0.42 0.37 0.34 0.43 0.53 0.48 0.37 0.43 0.57 0.69 0.76 0.84 0.88 0.93 1.01 1.06 1.04 1.05 1.12 1.19 1.13 1.05 1.08 1.09 1.04 0.94 0.99 1.12 1.16 1.11 1.14 1.15 1.12